Location: ????????
(55.0559°N, 39.1270°E)
Time: 00:25:50
(UTC+00:00)

ATLAS 3B R/B - Pass Details

Date: 15 November 2025
Orbit: 935 x 1258 km, 63.8° (Epoch: 12 December)

Event Time Altitude Azimuth Distance (km) Brightness Sun altitude
Rises 03:38:00 0° 224° (SW) 4,066 5.5 -10.9°
Reaches altitude 10° 03:40:40 10° 224° (SW) 3,141 4.9 -10.6°
Maximum altitude 03:48:20 87° 137° (SE) 1,255 3.1 -9.5°
Drops below altitude 10° 03:56:17 10° 50° (NE) 3,250 5.7 -8.5°
Sets 03:59:06 0° 50° (NE) 4,214 6.2 -8.1°
